Regional Weather Roundup
Issued by NWS Burlington, VT

Home | Current Version | Previous Version | Text Only | Print | Product List | Glossary On
Versions: 1 2 3 4 5 6 7 8 9 10 11 12 13 14 15 16 17 18 19 20 21 22 23 24 25 26 27 28 29 30 31 32 33 34 35 36 37 38 39 40 41 42 43 44 45 46 47 48 49 50
000
ASUS41 KBTV 052110
RWRBTV
VERMONT REGIONAL WEATHER ROUNDUP
NATIONAL WEATHER SERVICE BURLINGTON VT
400 PM EST MON DEC 05 2016

NOTE: "FAIR" INDICATES FEW OR NO CLOUDS BELOW 12,000 FEET WITH NO
SIGNIFICANT WEATHER AND/OR OBSTRUCTIONS TO VISIBILITY.

* THESE REPORTS ARE NOT UNDER NWS QUALITY CONTROL AND/OR DO NOT
  REPORT WEATHER SUCH AS PRECIPITATION AND FOG.

VTZ001>019-052200-
_____VERMONT_____


CITY           SKY/WX    TMP DP  RH WIND       PRES   REMARKS
BURLINGTON     FLURRIES  35  30  82 SW9       29.89R WCI  28
MONTPELIER     CLOUDY    29  27  92 CALM      29.88R
MORRISVILLE    FLURRIES  29  25  85 S3        29.87R
ST. JOHNSBURY*   N/A     31  28  89 MISG      29.85R
LYNDONVILLE*   MIX PCPN  28  27  97 E5        29.85S WCI  23
MIDDLEBURY*    CLOUDY    35  31  85 S5        29.89R WCI  31
RUTLAND*       CLOUDY    37  32  82 VRB6G17   29.89R
SPRINGFIELD    CLOUDY    30  27  88 CALM      29.90S
HIGHGATE*      FLURRIES  33  32  98 CALM      29.87R
NEWPORT*       LGT SNOW  28  27  94 S5        29.85R VSB 1   WCI  23
BENNINGTON     CLOUDY    38  30  73 W9        29.92R WCI  31
SUTTON*          N/A     27 N/A N/A MISG        N/A

_____LAKE CHAMPLAIN_____


CITY           SKY/WX    TMP DP  RH WIND       PRES   REMARKS
BURTON ISLAND*   N/A     37  34  87 SW9         N/A  WCI  31
COLCHESTER RF*   N/A     37  34  87 SW15        N/A  WCI  28
DIAMOND ISL*     N/A     36  32  87 S9          N/A  WCI  29

$$

NYZ007-026>031-035-052-083-087-052200-
_____NORTHERN NEW YORK_____


CITY           SKY/WX    TMP DP  RH WIND       PRES   REMARKS
PLATTSBURGH    CLOUDY    34  30  85 CALM      29.88R
SARANAC LAKE   LGT SNOW  31  28  89 VRB6      29.84R VSB 1   WCI  25
MASSENA        CLOUDY    32  28  85 W8        29.94R WCI  25
OGDENSBURG*    CLOUDY    36  30  80 W5        29.94R WCI  32
POTSDAM*       CLOUDY    34  34 100 W9        29.93R WCI  26
WATERTOWN      CLOUDY    40  32  73 W9        29.95R
FT DRUM        CLOUDY    36  32  87 W5        29.93R WCI  32
ALBANY         MOCLDY    41  30  65 W8        29.95R
GLENS FALLS    PTCLDY    38  31  76 S5        29.91R

$$
NHZ002-005-011-052200-
_____NEW HAMPSHIRE_____


CITY           SKY/WX    TMP DP  RH WIND       PRES   REMARKS
LEBANON        CLOUDY    32  29  88 CALM      29.89S
KEENE          CLOUDY    33  29  85 CALM      29.92S
MT WASHINGTON  SNOW      14  14 100 W44         N/A  VSB 0   WCI -10
PLYMOUTH       LGT SNOW  28  27  95 CALM      29.91S
WHITEFIELD     FLURRIES  29  25  85 CALM      29.85S

$$

_____REGIONAL QUEBEC LOCATIONS_____


CITY           SKY/WX    TMP DP  RH WIND       PRES   REMARKS
MONTREAL       LGT SNOW  25  23  93 N8        29.91R WCI  16
QUEBEC CITY    LGT SNOW  25  21  86 NE12      29.90S FOG     WCI  14
SHERBROOKE     LGT SNOW  27  25  93 VRB2      29.84R

_____REGIONAL ONTARIO LOCATIONS_____


CITY           SKY/WX    TMP DP  RH WIND       PRES   REMARKS
OTTAWA         MOCLDY    27  25  93 W2        29.91R

______KEY______
VSB  - VISIBILITY IN MILES
WCI  - WIND CHILL INDEX
HX   - HEAT INDEX
$$
NNNN




USA.gov is the U.S. government's official web portal to all federal, state and local government web resources and services.